• In Deutschland
  • Länderverzeichnis
  • Für 7 Tage
  • Wassertemperatur
  • Satellitenkarten
  • Wetterkarte
  • Widgets
  • user-avatar
    Anmelden

    Stündliche Wetter Hückelhoven

    Heute, 22 September, Samstag

    Zeit Temperatur Niederschläge Wind Luftdruck Luftfeuchtigkeit
    00:00 +11°C° 0 mm 6 m/S 759 mmHg 67%
    01:00 +12°C° 0 mm 5 m/S 759 mmHg 70%
    02:00 +12°C° 0 mm 5 m/S 759 mmHg 72%
    03:00 +11°C° 0 mm 4 m/S 759 mmHg 74%
    04:00 +11°C° 0 mm 4 m/S 760 mmHg 76%
    05:00 +11°C° 0 mm 4 m/S 760 mmHg 78%
    06:00 +11°C° 0 mm 4 m/S 760 mmHg 79%
    07:00 +12°C° 0 mm 4 m/S 760 mmHg 73%
    08:00 +13°C° 0 mm 5 m/S 760 mmHg 68%
    09:00 +15°C° 0 mm 5 m/S 760 mmHg 62%
    10:00 +15°C° 0.1 mm 5 m/S 760 mmHg 60%
    11:00 +16°C° 0.1 mm 6 m/S 760 mmHg 57%
    12:00 +17°C° 0.1 mm 6 m/S 760 mmHg 55%
    13:00 +16°C° 0.2 mm 6 m/S 760 mmHg 59%
    14:00 +15°C° 0.2 mm 5 m/S 760 mmHg 63%
    15:00 +15°C° 0.2 mm 5 m/S 760 mmHg 67%
    16:00 +14°C° 0.2 mm 4 m/S 759 mmHg 71%
    17:00 +13°C° 0.2 mm 3 m/S 759 mmHg 76%
    18:00 +12°C° 0.2 mm 3 m/S 759 mmHg 80%
    19:00 +13°C° 0.4 mm 2 m/S 759 mmHg 82%
    20:00 +13°C° 0.4 mm 2 m/S 759 mmHg 85%
    21:00 +12°C° 0.4 mm 2 m/S 759 mmHg 88%
    22:00 +12°C° 0.5 mm 2 m/S 759 mmHg 88%
    23:00 +12°C° 0.5 mm 2 m/S 758 mmHg 88%

    Morgen, 23 September, Sonntag

    Zeit Temperatur Niederschläge Wind Luftdruck Luftfeuchtigkeit
    00:00 +12°C° 0.5 mm 2 m/S 758 mmHg 89%
    01:00 +12°C° 0.5 mm 2 m/S 757 mmHg 89%
    02:00 +12°C° 0.5 mm 2 m/S 756 mmHg 89%
    03:00 +12°C° 0.5 mm 2 m/S 756 mmHg 89%
    04:00 +13°C° 0.3 mm 1 m/S 755 mmHg 90%
    05:00 +13°C° 0.3 mm 1 m/S 755 mmHg 90%
    06:00 +13°C° 0.3 mm 1 m/S 755 mmHg 90%
    07:00 +13°C° 0.1 mm 1 m/S 755 mmHg 89%
    08:00 +14°C° 0.1 mm 1 m/S 755 mmHg 87%
    09:00 +14°C° 0.1 mm 1 m/S 754 mmHg 85%
    10:00 +14°C° 1.4 mm 2 m/S 754 mmHg 87%
    11:00 +13°C° 1.4 mm 3 m/S 753 mmHg 89%
    12:00 +13°C° 1.4 mm 4 m/S 752 mmHg 91%
    13:00 +13°C° 3.1 mm 5 m/S 752 mmHg 91%
    14:00 +11°C° 3.1 mm 6 m/S 751 mmHg 91%
    15:00 +11°C° 3.1 mm 7 m/S 750 mmHg 91%
    16:00 +10°C° 0.9 mm 7 m/S 752 mmHg 90%
    17:00 +9°C° 0.9 mm 7 m/S 753 mmHg 90%
    18:00 +8°C° 0.9 mm 7 m/S 754 mmHg 90%
    19:00 +8°C° 0.5 mm 6 m/S 756 mmHg 90%
    20:00 +8°C° 0.5 mm 5 m/S 758 mmHg 89%
    21:00 +10°C° 0.5 mm 4 m/S 760 mmHg 89%
    22:00 +8°C° 0 mm 4 m/S 761 mmHg 88%
    23:00 +8°C° 0 mm 4 m/S 762 mmHg 87%

    übermorgen, 24 September, Montag

    Zeit Temperatur Niederschläge Wind Luftdruck Luftfeuchtigkeit
    00:00 +7°C° 0 mm 4 m/S 763 mmHg 87%
    01:00 +8°C° 0 mm 3 m/S 764 mmHg 87%
    02:00 +8°C° 0 mm 3 m/S 765 mmHg 87%
    03:00 +7°C° 0 mm 2 m/S 766 mmHg 87%
    04:00 +7°C° 0 mm 2 m/S 767 mmHg 87%
    05:00 +7°C° 0 mm 2 m/S 768 mmHg 87%
    06:00 +7°C° 0 mm 2 m/S 768 mmHg 87%
    07:00 +9°C° 0 mm 2 m/S 769 mmHg 79%
    08:00 +11°C° 0 mm 3 m/S 769 mmHg 72%
    09:00 +12°C° 0 mm 3 m/S 770 mmHg 64%
    10:00 +13°C° 0.1 mm 4 m/S 770 mmHg 61%
    11:00 +14°C° 0.1 mm 4 m/S 770 mmHg 59%
    12:00 +14°C° 0.1 mm 5 m/S 770 mmHg 56%
    13:00 +14°C° 0.1 mm 5 m/S 770 mmHg 56%
    14:00 +14°C° 0.1 mm 4 m/S 770 mmHg 56%
    15:00 +14°C° 0.1 mm 4 m/S 770 mmHg 57%
    16:00 +13°C° 0 mm 4 m/S 771 mmHg 62%
    17:00 +11°C° 0 mm 3 m/S 771 mmHg 67%
    18:00 +10°C° 0 mm 2 m/S 771 mmHg 71%
    19:00 +10°C° 0 mm 2 m/S 772 mmHg 74%
    20:00 +9°C° 0 mm 2 m/S 773 mmHg 76%
    21:00 +9°C° 0 mm 1 m/S 773 mmHg 78%
    22:00 +9°C° 0 mm 1 m/S 773 mmHg 80%
    23:00 +8°C° 0 mm 1 m/S 773 mmHg 82%

    25 September, Dienstag

    Zeit Temperatur Niederschläge Wind Luftdruck Luftfeuchtigkeit
    00:00 +8°C° 0 mm 1 m/S 774 mmHg 83%
    01:00 +8°C° 0 mm 1 m/S 774 mmHg 84%
    02:00 +7°C° 0 mm 1 m/S 774 mmHg 84%
    03:00 +7°C° 0 mm 1 m/S 774 mmHg 85%
    04:00 +7°C° 0 mm 1 m/S 774 mmHg 84%
    05:00 +7°C° 0 mm 1 m/S 774 mmHg 84%
    06:00 +6°C° 0 mm 0 m/S 774 mmHg 84%
    07:00 +9°C° 0 mm 1 m/S 774 mmHg 74%
    08:00 +11°C° 0 mm 1 m/S 774 mmHg 65%
    09:00 +13°C° 0 mm 2 m/S 775 mmHg 56%
    10:00 +14°C° 0 mm 2 m/S 774 mmHg 51%
    11:00 +15°C° 0 mm 2 m/S 774 mmHg 46%
    12:00 +16°C° 0 mm 2 m/S 774 mmHg 41%
    13:00 +16°C° 0 mm 2 m/S 773 mmHg 41%
    14:00 +16°C° 0 mm 2 m/S 773 mmHg 40%
    15:00 +16°C° 0 mm 2 m/S 772 mmHg 40%
    16:00 +15°C° 0 mm 2 m/S 772 mmHg 45%
    17:00 +13°C° 0 mm 2 m/S 772 mmHg 50%
    18:00 +12°C° 0 mm 1 m/S 772 mmHg 55%
    19:00 +11°C° 0 mm 1 m/S 772 mmHg 58%
    20:00 +10°C° 0 mm 1 m/S 772 mmHg 60%
    21:00 +10°C° 0 mm 1 m/S 772 mmHg 63%
    22:00 +9°C° 0 mm 1 m/S 772 mmHg 65%
    23:00 +9°C° 0 mm 1 m/S 772 mmHg 66%

    26 September, Mittwoch

    Zeit Temperatur Niederschläge Wind Luftdruck Luftfeuchtigkeit
    00:00 +9°C° 0 mm 1 m/S 772 mmHg 68%
    01:00 +8°C° 0 mm 1 m/S 771 mmHg 69%
    02:00 +8°C° 0 mm 1 m/S 771 mmHg 69%
    03:00 +8°C° 0 mm 1 m/S 771 mmHg 69%
    04:00 +8°C° 0 mm 1 m/S 771 mmHg 69%
    05:00 +8°C° 0 mm 1 m/S 771 mmHg 69%
    06:00 +8°C° 0 mm 1 m/S 771 mmHg 68%
    07:00 +10°C° 0 mm 1 m/S 770 mmHg 61%
    08:00 +12°C° 0 mm 1 m/S 770 mmHg 54%
    09:00 +15°C° 0 mm 2 m/S 770 mmHg 47%
    10:00 +16°C° 0 mm 1 m/S 770 mmHg 43%
    11:00 +18°C° 0 mm 1 m/S 769 mmHg 39%
    12:00 +20°C° 0 mm 1 m/S 769 mmHg 35%
    13:00 +20°C° 0 mm 1 m/S 768 mmHg 35%
    14:00 +20°C° 0 mm 1 m/S 768 mmHg 35%
    15:00 +21°C° 0 mm 1 m/S 767 mmHg 35%
    16:00 +19°C° 0 mm 1 m/S 767 mmHg 40%
    17:00 +16°C° 0 mm 1 m/S 767 mmHg 46%
    18:00 +14°C° 0 mm 1 m/S 767 mmHg 51%
    19:00 +13°C° 0 mm 1 m/S 767 mmHg 53%
    20:00 +13°C° 0 mm 1 m/S 767 mmHg 55%
    21:00 +12°C° 0 mm 1 m/S 767 mmHg 57%
    22:00 +12°C° 0 mm 1 m/S 767 mmHg 58%
    23:00 +11°C° 0 mm 1 m/S 766 mmHg 60%

    27 September, Donnerstag

    Zeit Temperatur Niederschläge Wind Luftdruck Luftfeuchtigkeit
    00:00 +10°C° 0 mm 2 m/S 766 mmHg 61%
    01:00 +10°C° 0 mm 2 m/S 766 mmHg 62%
    02:00 +9°C° 0 mm 2 m/S 765 mmHg 63%
    03:00 +9°C° 0 mm 2 m/S 765 mmHg 64%
    04:00 +9°C° 0 mm 2 m/S 765 mmHg 65%
    05:00 +8°C° 0 mm 2 m/S 765 mmHg 66%
    06:00 +8°C° 0 mm 2 m/S 765 mmHg 66%
    07:00 +10°C° 0 mm 2 m/S 765 mmHg 61%
    08:00 +13°C° 0 mm 3 m/S 765 mmHg 55%
    09:00 +16°C° 0 mm 3 m/S 764 mmHg 50%
    10:00 +17°C° 0 mm 3 m/S 764 mmHg 47%
    11:00 +18°C° 0 mm 4 m/S 764 mmHg 43%
    12:00 +20°C° 0 mm 4 m/S 764 mmHg 40%
    13:00 +20°C° 0 mm 4 m/S 764 mmHg 42%
    14:00 +20°C° 0 mm 4 m/S 763 mmHg 44%
    15:00 +20°C° 0 mm 4 m/S 763 mmHg 46%
    16:00 +19°C° 0 mm 3 m/S 764 mmHg 55%
    17:00 +17°C° 0 mm 3 m/S 764 mmHg 64%
    18:00 +16°C° 0 mm 2 m/S 764 mmHg 72%
    19:00 +16°C° 0.1 mm 2 m/S 765 mmHg 77%
    20:00 +15°C° 0.1 mm 2 m/S 765 mmHg 83%
    21:00 +15°C° 0.1 mm 2 m/S 765 mmHg 88%
    22:00 +13°C° 0.1 mm 3 m/S 765 mmHg 88%
    23:00 +13°C° 0.1 mm 3 m/S 765 mmHg 87%
    Mehr zeigen